Hourly Data Report for November 29, 2019

OTTAWA INTL A
ONTARIO
Current Station Operator: NAVCAN

45°19'00.000" N
75°40'00.000" W
114.90 m
6106001
71628
YOW

Download Data

Hourly Data (November 2019)
Hourly Data Report for November 29, 2019
TIME Temp Definition
°C
Dew Point Definition
°C
Rel Hum Definition
%
Wind Dir Definition
10's deg

Wind Spd Definition
km/h
Visibility Definition
km
Stn Press Definition
kPa
Hmdx Definition


Wind Chill Definition


Weather Definition


00:00 -2.9 -6.2 78 33 26 24.1 101.47   -10 LegendNANA
01:00 -3.3 -6.6 78 32 25 24.1 101.47   -10 Cloudy
02:00 -3.4 -6.5 79 33 25 24.1 101.48   -10 LegendNANA
03:00 -3.4 -6.6 79 32 20 24.1 101.48   -10 LegendNANA
04:00 -3.7 -6.9 79 32 19 24.1 101.50   -10 Cloudy
05:00 -4.3 -7.5 78 32 19 24.1 101.47   -10 LegendNANA
06:00 -5.1 -7.9 81 31 21 24.1 101.52   -12 LegendNANA
07:00 -5.8 -8.1 84 32 21 24.1 101.50   -13 Mostly Cloudy
08:00 -6.4 -8.9 83 31 22 24.1 101.51   -14 LegendNANA
09:00 -5.9 -9.1 78 33 20 24.1 101.54   -13 LegendNANA
10:00 -5.8 -9.5 75 33 29 24.1 101.56   -14 Mostly Cloudy
11:00 -5.5 -9.2 75 31 21 24.1 101.48   -12 LegendNANA
12:00 -4.8 -9.5 70 32 21 24.1 101.42   -11 LegendNANA
13:00 -4.4 -10.0 65 31 20 24.1 101.39   -11 Mainly Clear
14:00 -4.1 -10.3 62 32 24 24.1 101.33   -11 LegendNANA
15:00 -4.4 -10.8 62 34 17 24.1 101.29   -10 LegendNANA
16:00 -5.6 -10.8 67 31 21 24.1 101.26   -12 Mainly Clear
17:00 -6.6 -10.7 73 32 20 24.1 101.36   -14 LegendNANA
18:00 -7.3 -10.9 76 34 18 24.1 101.25   -14 LegendNANA
19:00 -7.6 -11.4 74 33 16 24.1 101.28   -14 Mostly Cloudy
20:00 -7.6 -11.1 76 32 18 24.1 101.27   -14 LegendNANA
21:00 -7.7 -10.7 79 32 20 24.1 101.21   -15 LegendNANA
22:00 -8.0 -10.7 81 33 17 24.1 101.13   -15 Mainly Clear
23:00 -8.4 -10.9 82 33 16 24.1 101.08   -15 LegendNANA

Notes on Data Quality.

Legend

  • E = Estimated
  • M = Missing
  • NA = Not Available*
  • [empty] = Indicates an unobserved value
Date modified: